Radiation Dose at Monitoring Post of Fukushima Daini Nuclear Power Station
Date,Time,MP-1(microSv/h),MP-2(microSv/h),MP-3(microSv/h),MP-4(microSv/h),MP-5(microSv/h),MP-6(microSv/h),MP-7(microSv/h),Wind Direction,Wind Velocity(m/s),Rain
2019/10/09,00:00,0.183,0.161,0.274,0.258,0.261,0.139,0.086,northwest,8.7,No
2019/10/09,00:10,0.185,0.162,0.276,0.258,0.264,0.140,0.086,northwest,5.1,No
2019/10/09,00:20,0.183,0.161,0.273,0.258,0.262,0.139,0.087,north-northwest,6.0,No
2019/10/09,00:30,0.185,0.162,0.276,0.258,0.261,0.139,0.086,northwest,6.4,No
2019/10/09,00:40,0.184,0.161,0.274,0.257,0.261,0.139,0.086,north-northwest,4.5,No
2019/10/09,00:50,0.185,0.162,0.274,0.256,0.261,0.139,0.086,north-northwest,3.6,No
2019/10/09,01:00,0.184,0.161,0.274,0.258,0.263,0.139,0.086,northwest,5.6,No
2019/10/09,01:10,0.183,0.162,0.276,0.257,0.261,0.140,0.087,north-northwest,6.8,No
2019/10/09,01:20,0.185,0.161,0.275,0.258,0.262,0.140,0.086,north,5.2,No
2019/10/09,01:30,0.183,0.162,0.275,0.256,0.260,0.139,0.086,north-northwest,3.3,No
2019/10/09,01:40,0.185,0.162,0.276,0.259,0.264,0.140,0.087,northwest,4.7,No
2019/10/09,01:50,0.184,0.161,0.275,0.257,0.259,0.139,0.086,north-northwest,6.9,No
2019/10/09,02:00,0.184,0.161,0.276,0.259,0.262,0.140,0.087,northwest,6.4,No
2019/10/09,02:10,0.184,0.163,0.273,0.257,0.261,0.139,0.086,northwest,7.1,No
2019/10/09,02:20,0.184,0.161,0.275,0.258,0.263,0.139,0.086,northwest,7.4,No
2019/10/09,02:30,0.185,0.163,0.274,0.257,0.261,0.140,0.087,northwest,9.5,No
2019/10/09,02:40,0.184,0.161,0.277,0.258,0.262,0.141,0.086,northwest,10.1,No
2019/10/09,02:50,0.184,0.163,0.274,0.258,0.262,0.140,0.088,northwest,8.4,No
2019/10/09,03:00,0.185,0.161,0.276,0.259,0.263,0.140,0.086,northwest,5.5,No
2019/10/09,03:10,0.184,0.162,0.274,0.257,0.262,0.140,0.087,north,3.8,No
2019/10/09,03:20,0.184,0.162,0.278,0.259,0.262,0.140,0.087,north-northwest,4.3,No
2019/10/09,03:30,0.184,0.163,0.275,0.258,0.263,0.140,0.086,north-northwest,4.0,No
2019/10/09,03:40,0.183,0.162,0.277,0.259,0.262,0.140,0.086,north-northwest,3.1,No
2019/10/09,03:50,0.185,0.162,0.275,0.258,0.262,0.139,0.087,northwest,4.2,No
2019/10/09,04:00,0.184,0.162,0.277,0.258,0.263,0.139,0.086,west-northwest,4.9,No
2019/10/09,04:10,0.185,0.161,0.276,0.258,0.261,0.141,0.087,northwest,4.5,No
2019/10/09,04:20,0.184,0.161,0.277,0.257,0.263,0.139,0.087,northwest,7.5,No
2019/10/09,04:30,0.185,0.161,0.275,0.259,0.261,0.140,0.086,north-northwest,3.8,No
2019/10/09,04:40,0.184,0.162,0.275,0.258,0.263,0.140,0.086,northwest,5.7,No
2019/10/09,04:50,0.184,0.162,0.275,0.259,0.259,0.140,0.086,west-northwest,10.3,No
2019/10/09,05:00,0.183,0.162,0.274,0.257,0.263,0.140,0.087,west-northwest,9.8,No
2019/10/09,05:10,0.184,0.163,0.276,0.259,0.261,0.140,0.086,west-northwest,10.6,No
2019/10/09,05:20,0.184,0.160,0.275,0.258,0.262,0.140,0.087,west-northwest,9.0,No
2019/10/09,05:30,0.184,0.162,0.277,0.259,0.261,0.139,0.086,west,8.7,No
2019/10/09,05:40,0.185,0.162,0.275,0.258,0.262,0.140,0.086,west-northwest,7.6,No
2019/10/09,05:50,0.185,0.162,0.277,0.258,0.262,0.140,0.087,west,6.3,No
2019/10/09,06:00,0.184,0.161,0.276,0.258,0.262,0.141,0.087,west-northwest,6.4,No
2019/10/09,06:10,0.184,0.162,0.276,0.259,0.261,0.140,0.086,northwest,6.2,No
2019/10/09,06:20,0.185,0.162,0.276,0.259,0.262,0.140,0.086,north-northwest,4.1,No
2019/10/09,06:30,0.185,0.162,0.275,0.257,0.264,0.139,0.086,north,4.2,No
2019/10/09,06:40,0.186,0.162,0.275,0.259,0.260,0.140,0.086,north,4.5,No
2019/10/09,06:50,0.183,0.162,0.275,0.259,0.264,0.140,0.086,north,4.1,No
2019/10/09,07:00,0.185,0.162,0.276,0.259,0.260,0.140,0.086,north,4.0,No
2019/10/09,07:10,0.185,0.162,0.274,0.259,0.264,0.139,0.086,north,3.5,No
2019/10/09,07:20,0.186,0.161,0.277,0.258,0.261,0.140,0.087,north-northwest,3.2,No
2019/10/09,07:30,0.184,0.163,0.276,0.257,0.263,0.140,0.086,north-northwest,2.9,No
2019/10/09,07:40,0.185,0.161,0.276,0.257,0.261,0.139,0.086,southwest,1.0,No
2019/10/09,07:50,0.185,0.162,0.276,0.256,0.262,0.140,0.087,northeast,0.8,No
2019/10/09,08:00,0.184,0.162,0.275,0.257,0.261,0.141,0.086,north-northeast,2.7,No
2019/10/09,08:10,0.185,0.161,0.276,0.258,0.263,0.140,0.086,north,1.7,No
2019/10/09,08:20,0.184,0.161,0.274,0.258,0.261,0.139,0.085,north,2.3,No
2019/10/09,08:30,0.185,0.161,0.277,0.259,0.261,0.141,0.086,west-northwest,1.2,No
2019/10/09,08:40,0.184,0.161,0.274,0.256,0.259,0.140,0.086,north-northeast,0.7,No
2019/10/09,08:50,0.185,0.162,0.277,0.258,0.263,0.140,0.086,northwest,4.8,No
2019/10/09,09:00,0.184,0.161,0.276,0.259,0.260,0.140,0.086,northwest,9.0,No
2019/10/09,09:10,0.183,0.162,0.276,0.256,0.260,0.139,0.085,northwest,8.1,No
2019/10/09,09:20,0.185,0.161,0.276,0.255,0.263,0.142,0.087,northwest,5.9,No
2019/10/09,09:30,0.184,0.162,0.276,0.258,0.259,0.140,0.086,northwest,7.0,No
2019/10/09,09:40,0.184,0.162,0.276,0.259,0.260,0.139,0.086,northwest,5.7,No
2019/10/09,09:50,0.184,0.162,0.276,0.258,0.262,0.140,0.086,west-northwest,6.9,No
2019/10/09,10:00,0.186,0.161,0.277,0.257,0.260,0.140,0.086,west-northwest,7.2,No
2019/10/09,10:10,0.185,0.162,0.276,0.257,0.259,0.140,0.086,west-northwest,6.5,No
2019/10/09,10:20,0.182,0.161,0.275,0.256,0.262,0.140,0.087,northwest,4.9,No
2019/10/09,10:30,0.182,0.161,0.276,0.255,0.262,0.140,0.086,west-northwest,5.6,No
2019/10/09,10:40,0.186,0.161,0.276,0.255,0.260,0.141,0.086,northwest,5.4,No
2019/10/09,10:50,0.185,0.162,0.276,0.256,0.261,0.139,0.086,west-northwest,7.1,No
2019/10/09,11:00,0.184,0.163,0.275,0.256,0.260,0.141,0.085,west-northwest,6.4,No
2019/10/09,11:10,0.182,0.161,0.279,0.256,0.264,0.140,0.086,northwest,7.8,No
2019/10/09,11:20,0.184,0.160,0.275,0.256,0.262,0.141,0.086,northwest,4.0,No
2019/10/09,11:30,0.186,0.161,0.276,0.257,0.261,0.140,0.087,west-northwest,5.8,No
2019/10/09,11:40,0.185,0.163,0.277,0.257,0.260,0.140,0.086,west-northwest,7.0,No
2019/10/09,11:50,0.184,0.162,0.274,0.257,0.259,0.141,0.086,west-northwest,5.3,No
2019/10/09,12:00,0.183,0.161,0.273,0.257,0.259,0.140,0.086,west-northwest,5.9,No
2019/10/09,12:10,0.184,0.161,0.275,0.258,0.262,0.140,0.086,west-northwest,5.8,No
2019/10/09,12:20,0.186,0.162,0.278,0.258,0.264,0.141,0.086,west-northwest,5.5,No
2019/10/09,12:30,0.186,0.163,0.275,0.259,0.262,0.141,0.086,west-northwest,7.5,No
2019/10/09,12:40,0.185,0.162,0.274,0.258,0.262,0.143,0.086,west-northwest,5.1,No
2019/10/09,12:50,0.184,0.162,0.275,0.259,0.261,0.142,0.087,west-northwest,7.0,No
2019/10/09,13:00,0.183,0.161,0.277,0.259,0.260,0.141,0.086,west-northwest,7.3,No
2019/10/09,13:10,0.184,0.161,0.277,0.259,0.260,0.141,0.087,west-northwest,6.7,No
2019/10/09,13:20,0.187,0.163,0.276,0.259,0.258,0.141,0.087,northwest,5.4,No
2019/10/09,13:30,0.186,0.163,0.275,0.259,0.260,0.140,0.087,west-northwest,6.6,No
2019/10/09,13:40,0.183,0.162,0.274,0.259,0.260,0.141,0.086,west-northwest,6.3,No
2019/10/09,13:50,0.184,0.162,0.274,0.258,0.260,0.142,0.086,west,6.8,No
2019/10/09,14:00,0.185,0.161,0.277,0.263,0.260,0.141,0.087,west,5.8,No
2019/10/09,14:10,0.184,0.162,0.279,0.261,0.263,0.141,0.087,west-northwest,5.4,No
2019/10/09,14:20,0.187,0.164,0.276,0.260,0.264,0.141,0.087,west-northwest,6.3,No
2019/10/09,14:30,0.185,0.163,0.276,0.261,0.264,0.141,0.087,west,5.0,No
2019/10/09,14:40,0.184,0.162,0.280,0.262,0.262,0.142,0.087,west,4.4,No
2019/10/09,14:50,0.183,0.163,0.278,0.259,0.262,0.143,0.087,west-northwest,5.2,No
2019/10/09,15:00,0.183,0.162,0.277,0.261,0.265,0.141,0.088,west-northwest,5.3,No
2019/10/09,15:10,0.188,0.162,0.279,0.262,0.261,0.141,0.087,west,5.2,No
2019/10/09,15:20,0.186,0.163,0.277,0.261,0.265,0.141,0.086,west,4.2,No
2019/10/09,15:30,0.184,0.164,0.279,0.262,0.265,0.141,0.087,west,5.3,No
2019/10/09,15:40,0.187,0.163,0.277,0.261,0.263,0.142,0.087,west,5.8,No
2019/10/09,15:50,0.187,0.163,0.279,0.261,0.265,0.142,0.088,west,5.5,No
2019/10/09,16:00,0.185,0.163,0.278,0.262,0.264,0.141,0.087,west,6.9,No
2019/10/09,16:10,0.186,0.163,0.277,0.260,0.263,0.141,0.086,west,5.2,No
2019/10/09,16:20,0.186,0.164,0.280,0.262,0.265,0.142,0.088,west,5.3,No
2019/10/09,16:30,0.187,0.164,0.277,0.260,0.263,0.142,0.087,west,6.1,No
2019/10/09,16:40,0.187,0.163,0.280,0.262,0.262,0.142,0.086,west-northwest,6.1,No
2019/10/09,16:50,0.187,0.164,0.276,0.260,0.263,0.141,0.087,west,7.1,No
2019/10/09,17:00,0.186,0.164,0.278,0.262,0.262,0.141,0.087,west,7.1,No
2019/10/09,17:10,0.186,0.163,0.279,0.260,0.264,0.142,0.088,west,8.5,No
2019/10/09,17:20,0.187,0.163,0.280,0.263,0.263,0.141,0.088,west,9.2,No
2019/10/09,17:30,0.186,0.163,0.278,0.260,0.265,0.142,0.088,west,10.0,No
2019/10/09,17:40,0.186,0.164,0.279,0.263,0.264,0.142,0.087,west,9.3,No
2019/10/09,17:50,0.187,0.164,0.278,0.261,0.264,0.141,0.087,west,10.0,No
2019/10/09,18:00,0.186,0.163,0.279,0.263,0.262,0.142,0.087,west-northwest,9.6,No
2019/10/09,18:10,0.186,0.163,0.278,0.261,0.266,0.141,0.087,west,10.0,No
2019/10/09,18:20,0.187,0.163,0.280,0.262,0.263,0.142,0.087,west-northwest,9.8,No
2019/10/09,18:30,0.187,0.164,0.278,0.260,0.265,0.140,0.087,west,8.5,No
2019/10/09,18:40,0.186,0.162,0.280,0.263,0.264,0.142,0.087,west-northwest,7.3,No
2019/10/09,18:50,0.186,0.163,0.277,0.261,0.263,0.142,0.087,west-northwest,8.1,No
2019/10/09,19:00,0.186,0.163,0.280,0.263,0.263,0.141,0.087,west,9.2,No
2019/10/09,19:10,0.187,0.162,0.278,0.260,0.264,0.142,0.086,west,8.6,No
2019/10/09,19:20,0.186,0.164,0.278,0.261,0.263,0.141,0.086,west,8.8,No
2019/10/09,19:30,0.187,0.163,0.278,0.260,0.263,0.141,0.088,west-northwest,7.8,No
2019/10/09,19:40,0.186,0.164,0.278,0.261,0.264,0.142,0.087,west-northwest,8.5,No
2019/10/09,19:50,0.187,0.163,0.279,0.262,0.263,0.142,0.087,west-northwest,7.2,No
2019/10/09,20:00,0.187,0.162,0.278,0.261,0.264,0.142,0.087,northwest,2.4,No
2019/10/09,20:10,0.187,0.162,0.279,0.262,0.263,0.142,0.087,west-northwest,3.9,No
2019/10/09,20:20,0.187,0.163,0.279,0.261,0.263,0.142,0.088,west-northwest,5.7,No
2019/10/09,20:30,0.186,0.164,0.280,0.263,0.264,0.142,0.087,west-northwest,3.7,No
2019/10/09,20:40,0.188,0.162,0.279,0.261,0.263,0.142,0.087,west-northwest,2.0,No
2019/10/09,20:50,0.186,0.163,0.279,0.261,0.266,0.141,0.087,west-northwest,1.7,No
2019/10/09,21:00,0.187,0.163,0.278,0.262,0.262,0.141,0.087,west-northwest,1.2,No
2019/10/09,21:10,0.187,0.163,0.278,0.261,0.264,0.142,0.087,southwest,1.2,No
2019/10/09,21:20,0.186,0.163,0.280,0.262,0.262,0.140,0.087,southwest,0.8,No
2019/10/09,21:30,0.187,0.164,0.278,0.260,0.265,0.142,0.087,southeast,1.5,No
2019/10/09,21:40,0.187,0.163,0.280,0.263,0.264,0.142,0.087,east-southeast,1.8,No
2019/10/09,21:50,0.187,0.163,0.278,0.262,0.263,0.142,0.087,south,1.4,No
2019/10/09,22:00,0.186,0.164,0.278,0.261,0.265,0.143,0.087,west-southwest,2.3,No
2019/10/09,22:10,0.186,0.164,0.280,0.264,0.262,0.142,0.088,southwest,1.8,No
2019/10/09,22:20,0.187,0.164,0.279,0.261,0.264,0.144,0.088,southwest,2.1,No
2019/10/09,22:30,0.186,0.163,0.280,0.264,0.264,0.142,0.088,south-southwest,3.1,No
2019/10/09,22:40,0.187,0.163,0.279,0.263,0.265,0.143,0.088,southwest,4.0,No
2019/10/09,22:50,0.186,0.163,0.279,0.262,0.263,0.143,0.088,southwest,4.0,No
2019/10/09,23:00,0.186,0.163,0.280,0.263,0.263,0.143,0.088,southwest,1.8,No
2019/10/09,23:10,0.186,0.163,0.279,0.261,0.265,0.143,0.088,west-southwest,2.4,No
2019/10/09,23:20,0.186,0.164,0.279,0.262,0.264,0.142,0.088,west-southwest,3.5,No
2019/10/09,23:30,0.186,0.163,0.279,0.262,0.264,0.142,0.087,west-southwest,3.3,No
2019/10/09,23:40,0.188,0.164,0.279,0.260,0.265,0.142,0.088,west-northwest,1.5,No
2019/10/09,23:50,0.187,0.164,0.280,0.262,0.263,0.142,0.087,west-southwest,2.7,No
